Location: Jackson Park
(37.2862°N, 79.9123°W)
Time: 13:54:41
(UTC+00:00)

Vanguard 2 - Pass Details

Date: 16 May 2026
Orbit: 553 x 2894 km, 32.9° (Epoch: 6 June)

Event Time Altitude Azimuth Distance (km) Brightness Sun altitude
Rises 10:36:17 0° 275° (W) 6,733 11.8 4.0°
Reaches altitude 10° 10:40:56 10° 273° (W) 5,663 11.4 4.8°
Maximum altitude 10:57:36 67° 196° (SSW) 2,473 10.1 8.0°
Drops below altitude 10° 11:08:49 10° 116° (ESE) 3,971 12.0 10.1°
Sets 11:11:30 0° 114° (ESE) 4,689 12.4 10.6°
